Wind_Speed
22 22 23 23 24 24 25 26 26 26 26 26 25 24 23 23 23 23 24 24 24 24 24 24 23 24 25 25 26 27 29 30 30 30 30 30 29 27 26 25 24 23 22 21 22 25 29 31 33 35 36 40 43 44 44 44 43 42 42 42 42 42 42
21 21 21 22 23 23 24 25 26 26 26 26 25 23 22 22 22 22 23 24 24 24 23 23 23 23 23 24 25 25 26 27 28 29 30 31 31 30 29 28 28 27 26 25 24 24 26 29 32 32 33 35 38 41 42 42 43 42 42 41 41 41 41
21 21 21 22 22 22 23 24 25 26 25 25 24 23 22 21 20 21 21 22 23 23 23 22 22 22 22 23 25 25 25 25 26 26 27 29 30 30 30 30 30 30 29 29 28 27 26 27 29 31 33 34 35 38 38 39 41 41 41 41 41 42 42
21 21 21 21 22 22 22 23 24 25 25 24 23 22 21 20 19 19 20 21 21 22 22 21 21 20 20 21 23 24 24 24 24 25 25 26 27 28 29 29 30 30 31 31 30 30 30 29 29 29 31 32 34 36 37 39 40 40 40 40 40 41 42
19 19 20 21 21 21 22 22 23 23 24 24 23 22 21 20 19 19 19 19 20 21 21 21 20 19 19 20 21 23 23 23 23 24 24 25 25 26 26 27 28 28 30 30 30 30 31 32 32 32 32 31 31 32 34 36 38 39 40 41 41 41 41
18 18 18 19 19 20 20 21 21 22 23 23 23 22 21 20 19 19 19 19 20 20 20 20 20 19 19 18 19 21 22 23 23 23 23 23 24 24 25 25 26 27 28 28 29 30 30 31 32 33 34 34 33 33 33 34 34 35 36 38 40 41 41
19 18 18 18 18 18 19 19 20 21 22 22 23 22 21 21 20 19 19 19 19 20 20 21 20 20 19 18 18 19 20 21 22 22 22 22 22 23 23 23 24 25 26 27 27 28 28 29 30 31 33 34 35 35 36 37 36 36 36 37 38 39 39
20 20 19 19 18 18 18 18 19 20 21 22 22 22 21 21 20 19 19 19 19 20 20 20 21 21 20 19 19 18 19 20 21 21 22 22 22 22 22 23 23 24 24 25 26 27 27 28 28 29 30 31 32 34 36 37 39 39 40 40 40 40 40
21 20 20 20 20 20 19 19 19 20 20 21 22 22 22 21 20 19 19 19 19 19 20 20 20 21 20 20 19 19 18 19 20 21 22 22 23 23 23 23 24 24 24 25 25 26 27 27 28 28 28 28 29 30 32 34 36 38 39 41 41 42 42
20 20 19 19 20 20 20 20 20 20 21 22 22 22 22 22 21 20 19 19 19 19 19 20 20 20 20 20 20 19 19 19 19 20 21 22 22 23 23 24 24 25 25 26 26 26 27 28 29 29 30 30 29 28 29 30 31 33 35 37 39 40 41
19 19 19 19 19 20 20 21 21 21 22 22 23 23 23 23 22 22 21 20 20 20 19 19 19 19 19 19 20 20 20 20 20 20 21 21 22 23 23 24 25 25 26 27 27 27 28 28 29 30 30 31 31 30 30 29 29 30 32 34 36 37 38
20 20 19 19 19 20 21 21 22 22 22 23 24 24 24 24 24 23 23 23 22 21 21 21 20 20 20 20 20 21 21 22 22 22 22 23 23 24 25 25 26 27 28 28 29 29 30 30 30 31 31 31 32 31 31 30 29 30 32 33 34 36 36
21 20 20 20 20 21 21 22 22 22 22 23 24 24 25 25 25 25 25 25 25 24 24 23 22 22 21 21 22 22 23 24 24 24 25 25 25 26 26 27 28 28 29 30 31 31 32 32 32 33 33 33 33 33 33 33 31 31 33 34 34 35 36
23 22 21 21 22 23 23 22 23 22 22 22 22 22 23 24 25 26 27 27 27 27 26 26 25 24 23 23 23 24 24 25 26 26 27 27 27 28 28 29 29 30 30 31 32 33 33 34 34 35 35 35 36 36 36 36 34 34 35 37 36 36 37
26 25 24 24 24 25 24 24 23 22 22 21 21 20 21 21 22 24 26 27 29 29 29 29 28 26 25 24 24 24 24 25 26 27 28 29 30 30 31 31 31 32 32 33 33 34 35 35 36 36 37 37 38 38 38 38 37 36 37 39 40 39 39
29 28 27 26 25 26 27 26 25 24 23 23 22 21 21 20 21 22 23 25 26 28 28 28 28 27 26 25 24 24 24 25 26 27 28 28 29 30 31 32 33 33 34 35 35 36 36 37 37 38 38 39 39 40 40 40 40 39 38 39 41 42 42
33 32 31 30 28 28 28 28 27 26 26 25 25 24 23 23 23 23 23 22 23 25 26 26 25 26 26 26 26 25 25 26 26 27 28 28 29 30 30 31 32 34 35 36 37 37 38 38 38 39 40 40 41 41 42 42 42 41 39 39 40 42 43
35 35 34 33 32 31 30 30 30 29 29 30 29 28 27 26 26 26 26 25 24 24 25 25 25 26 27 28 28 28 28 29 29 30 30 30 30 30 31 31 32 33 34 35 36 37 38 38 39 40 40 41 42 42 42 43 43 43 41 38 37 39 41
35 36 36 34 32 32 32 32 32 32 31 31 32 32 32 31 30 29 29 29 27 27 27 28 28 28 29 30 31 32 32 33 34 34 34 34 33 32 32 32 32 32 33 33 34 35 36 37 37 38 39 40 40 41 41 41 41 41 40 37 34 34 36
35 36 37 36 35 34 34 33 34 33 33 33 34 36 36 35 33 33 32 32 32 32 32 33 32 32 32 33 33 34 35 36 36 37 37 37 37 36 35 34 33 33 33 33 33 34 34 35 35 36 36 37 37 37 36 36 36 37 36 35 32 31 32
38 38 38 38 38 38 36 36 36 36 35 35 36 37 39 39 38 37 37 36 36 36 36 36 37 36 36 37 37 36 37 38 38 38 39 39 39 39 39 38 37 36 35 34 34 34 35 35 35 35 35 35 34 34 34 33 34 35 35 34 33 32 32
41 41 40 40 40 41 40 39 39 39 39 38 37 38 41 42 42 40 40 40 40 40 39 38 38 39 38 37 37 37 38 40 41 40 39 39 39 39 40 40 39 39 38 37 36 36 36 36 37 37 36 36 35 34 35 35 35 36 37 37 37 36 35
44 44 43 43 43 43 43 43 43 43 43 42 42 43 43 43 43 42 41 41 42 43 42 39 39 39 39 38 38 37 37 38 39 39 39 39 39 40 41 41 42 42 43 42 40 38 38 39 39 39 39 39 39 38 38 38 39 39 40 40 41 41 41
46 46 46 46 45 45 45 46 47 47 47 46 46 47 48 48 48 48 47 47 47 47 46 44 42 41 40 41 41 41 40 39 39 40 40 42 43 44 44 44 44 45 45 46 44 43 42 41 41 42 42 42 42 42 42 42 42 42 43 44 44 45 46
50 49 50 50 49 49 49 49 50 50 51 51 50 51 51 52 52 53 54 54 53 53 52 50 49 47 46 46 46 45 44 44 43 43 45 46 46 46 47 47 47 47 47 47 47 47 46 45 44 44 44 44 44 44 45 44 45 45 45 46 47 48 49
54 53 53 54 54 54 53 53 53 53 54 54 55 55 54 54 54 54 55 56 56 56 55 53 52 52 51 51 50 48 47 47 48 48 50 50 47 46 47 48 48 48 48 48 48 49 48 48 47 47 46 46 46 46 47 47 47 48 48 49 50 51 52
56 56 56 56 56 56 56 55 55 56 56 56 57 57 57 57 56 56 56 57 57 56 55 54 53 52 52 52 52 51 50 51 52 53 53 52 49 47 48 49 49 49 49 49 49 50 50 50 50 49 48 48 48 48 48 48 49 51 52 53 54 55 56
56 56 57 57 56 56 56 56 55 56 56 57 57 57 57 57 57 57 57 57 58 57 56 55 54 54 53 53 53 52 51 51 53 54 53 52 53 53 52 52 51 51 51 50 51 53 53 53 52 50 49 49 49 50 50 50 52 53 55 56 57 58 59
56 56 56 56 56 56 56 56 56 56 56 56 56 56 56 57 57 57 57 57 57 57 56 56 56 56 55 55 54 54 53 52 53 54 54 54 56 57 56 54 54 53 53 52 52 53 55 55 54 53 52 51 52 52 53 54 54 56 57 59 61 62 62
56 56 56 56 56 57 57 57 57 57 57 58 58 58 58 58 58 58 58 57 56 56 57 56 56 55 54 54 53 53 52 51 51 52 53 54 55 57 57 57 57 57 56 55 53 54 55 55 55 55 54 54 55 55 56 56 58 59 61 62 63 63 63
56 57 57 57 57 57 58 58 58 58 58 59 59 59 59 59 59 59 58 56 55 55 55 54 54 54 53 53 53 53 52 50 49 49 50 51 53 54 56 57 58 59 59 58 56 54 54 55 55 56 57 57 58 58 59 60 61 62 64 64 64 65 65
56 57 57 57 57 57 57 57 57 58 58 58 59 59 59 60 59 58 57 56 55 54 54 54 55 55 54 52 51 49 48 47 47 47 48 49 50 51 53 55 56 57 58 58 58 56 55 56 56 56 57 58 59 59 60 62 63 64 65 65 66 66 65
56 56 56 56 56 56 56 56 56 56 56 57 57 58 59 59 59 58 58 56 56 55 53 53 52 52 50 49 47 46 47 48 48 49 50 50 50 51 51 52 54 55 56 57 58 59 58 58 58 58 58 59 59 60 62 64 65 66 67 67 67 67 67
56 55 56 56 56 56 56 56 56 55 55 56 56 57 58 58 58 58 58 57 56 54 50 48 49 48 47 46 47 48 48 49 49 50 50 51 51 51 52 54 55 56 57 58 59 61 61 62 62 62 62 62 62 63 64 66 67 68 68 68 68 69 71
56 56 56 57 57 57 57 57 57 57 57 57 58 57 57 58 58 58 58 58 57 55 51 50 51 50 48 49 49 48 47 47 48 49 49 50 51 53 54 56 57 59 60 61 62 63 63 64 65 65 64 63 63 65 67 68 69 69 69 70 72 74 77
55 56 56 57 58 58 59 59 59 60 60 60 60 59 59 59 60 60 59 59 59 57 55 56 57 56 55 53 50 47 46 47 47 48 49 51 52 54 56 57 59 60 61 62 63 64 65 66 66 66 65 65 67 68 69 69 69 71 73 75 78 79 79
55 56 57 58 58 59 60 60 60 61 61 61 60 59 59 58 58 58 58 58 57 55 54 54 55 55 53 50 48 48 48 48 48 49 50 52 53 55 56 57 58 59 59 59 60 61 63 64 65 66 67 68 69 69 69 70 72 75 77 78 77 75 73
Wind_Direction
266 266 266 266 266 266 266 265 265 264 263 262 261 261 261 261 260 260 260 261 261 260 259 258 256 255 254 253 253 251 252 253 252 252 253 253 253 253 253 252 249 247 246 240 233 234 234 232 232 233 234 237 237 238 238 239 241 244 246 248 249 251 253
267 267 266 266 267 267 267 267 267 266 265 263 262 261 261 261 260 260 260 260 261 261 261 260 258 256 255 254 254 253 252 253 253 251 251 251 252 252 252 252 252 251 252 250 247 244 242 238 235 232 234 239 241 241 240 240 242 243 245 246 247 248 250
267 267 267 266 266 268 268 268 268 267 265 264 263 263 263 262 261 260 259 260 261 262 262 262 260 258 256 255 255 255 254 254 253 253 251 250 250 251 251 251 252 252 252 252 252 251 249 247 244 239 237 239 242 242 240 240 242 243 245 246 247 248 249
267 267 267 266 266 266 267 268 268 268 266 264 262 262 263 263 263 262 261 261 261 262 263 262 261 259 257 255 256 257 256 255 254 253 252 252 251 251 251 251 252 253 253 253 252 251 250 249 249 248 246 243 243 243 241 240 242 242 243 245 246 248 249
269 268 267 267 266 267 267 268 269 269 268 266 263 261 261 261 262 262 261 261 261 262 263 263 262 260 257 254 254 256 257 257 256 255 254 253 253 253 252 252 252 252 252 253 252 251 250 249 249 249 251 250 249 249 247 245 245 244 244 245 247 248 249
271 270 269 269 267 267 267 269 270 272 272 270 267 265 264 263 262 261 260 259 259 260 261 262 262 262 259 256 253 253 255 257 257 256 256 255 255 255 254 254 253 253 252 253 252 251 250 250 249 249 249 250 251 253 254 254 252 251 249 249 250 251 252
274 274 274 273 272 270 269 270 271 273 274 273 272 269 268 267 266 264 262 259 257 256 257 258 259 259 259 257 254 251 252 255 256 257 257 257 257 256 256 255 255 254 254 254 254 254 252 251 250 250 249 249 249 250 253 255 256 256 255 254 254 254 254
277 277 277 277 277 276 274 273 273 275 275 274 273 271 270 269 269 269 267 264 260 257 256 256 256 257 257 257 256 253 251 251 253 255 256 257 258 258 258 257 256 256 255 256 256 256 256 255 254 252 251 250 250 250 250 252 255 257 258 259 259 259 257
278 279 279 279 279 279 277 276 275 276 276 275 274 272 271 270 269 269 269 268 266 263 260 257 256 256 256 257 257 255 253 251 250 251 252 254 255 257 258 259 259 258 258 257 256 256 257 257 258 258 256 254 253 252 252 253 254 256 258 260 261 262 262
276 278 280 281 281 280 279 278 277 276 276 276 275 274 273 272 271 270 269 268 268 266 265 262 259 257 257 258 258 257 256 253 252 251 252 252 253 255 256 257 258 259 260 259 258 257 256 256 256 257 258 257 256 255 254 255 256 257 258 259 260 262 263
275 277 279 281 281 280 279 277 275 274 274 275 275 275 275 275 274 273 271 269 268 266 265 265 264 262 261 261 262 263 263 263 262 260 258 258 258 258 258 259 259 260 260 261 260 260 259 258 258 257 257 257 257 257 256 257 258 259 258 259 260 260 262
271 273 275 278 278 278 277 275 273 272 272 272 273 273 274 275 276 275 274 272 270 267 265 263 263 262 262 262 262 263 265 266 267 267 267 266 265 264 264 263 263 263 263 263 263 263 262 261 261 260 260 259 258 258 258 258 260 262 261 261 262 262 262
264 267 271 274 276 275 274 273 271 270 269 269 270 271 271 272 273 274 274 274 272 270 267 265 263 262 262 263 263 263 263 263 264 265 266 267 268 268 268 268 267 267 267 268 268 268 268 267 266 265 264 263 262 260 259 258 260 263 263 262 263 264 264
260 262 266 269 271 271 271 271 270 269 268 267 267 268 269 271 271 271 272 272 272 272 271 269 267 265 264 264 264 265 266 266 266 266 266 266 267 267 268 268 269 269 269 270 270 270 271 271 271 270 270 269 267 266 264 262 261 263 265 263 263 264 265
262 264 266 267 268 268 268 267 266 265 264 264 266 267 269 270 271 271 271 270 270 270 270 270 269 268 266 264 264 265 267 268 268 268 268 268 268 269 269 269 269 269 269 269 269 270 270 271 271 272 272 272 271 271 269 268 266 267 267 266 266 266 265
261 264 264 263 263 264 264 265 264 263 263 263 264 266 269 271 271 271 270 270 270 268 268 268 268 267 266 264 262 262 263 264 265 266 266 267 268 270 271 272 272 272 271 271 270 270 270 270 271 271 271 272 272 272 272 271 270 269 269 268 268 268 268
260 262 262 262 263 262 261 262 262 263 263 263 263 265 268 271 271 270 269 268 268 268 268 268 269 270 269 267 264 262 261 260 260 261 263 266 268 269 271 271 272 272 272 272 272 271 270 269 269 269 270 270 270 271 271 272 272 271 270 270 270 270 270
259 262 263 265 265 261 257 256 258 259 262 263 264 264 266 268 269 266 265 266 266 267 268 269 270 272 273 271 269 266 263 262 261 261 263 265 267 269 271 271 270 270 270 271 271 271 270 270 269 268 267 267 267 268 269 270 270 271 271 270 270 271 271
257 261 264 265 263 260 257 255 256 257 260 262 263 264 265 265 265 262 260 261 263 265 266 266 267 270 271 271 270 269 267 265 264 265 265 265 266 268 270 271 272 271 270 270 270 270 269 269 269 268 267 266 265 265 266 267 268 269 269 270 271 272 272
258 259 261 262 262 260 259 257 258 259 259 260 264 268 268 266 265 263 259 258 262 268 269 266 264 266 268 270 269 269 269 268 267 267 267 267 268 268 269 270 271 272 271 271 271 270 269 268 268 267 266 265 264 264 263 264 265 266 267 268 270 272 274
259 258 258 259 261 262 261 261 261 262 261 261 264 268 270 268 266 264 262 262 266 271 270 264 262 264 268 270 270 270 270 269 269 268 268 269 269 269 270 270 270 270 271 271 271 270 270 269 267 266 265 262 261 261 262 263 265 267 268 269 271 273 275
257 257 257 257 259 261 262 262 262 262 263 265 266 267 269 270 268 265 266 268 269 269 267 262 260 263 268 271 272 274 273 269 268 269 270 271 271 271 271 272 272 272 272 271 270 269 268 268 267 265 263 261 260 262 264 266 268 269 271 272 273 274 276
255 255 255 256 258 259 260 261 262 262 264 267 268 267 267 268 268 267 268 269 268 268 268 267 265 266 268 269 271 275 274 269 267 268 271 273 275 275 274 274 274 275 275 272 270 268 266 265 265 264 262 261 261 262 265 267 270 271 273 274 275 276 277
256 254 254 255 256 258 259 260 262 263 264 265 265 265 266 267 268 269 269 270 270 270 271 272 271 270 269 269 270 271 270 267 265 267 271 276 278 278 277 277 276 276 276 273 271 270 268 265 263 263 261 260 260 262 265 267 270 272 274 275 276 278 279
257 256 255 255 256 258 260 260 261 262 264 264 265 265 266 267 268 269 269 270 271 271 271 272 273 273 272 272 271 270 268 267 265 266 271 274 277 278 278 277 277 276 276 274 271 271 270 267 264 263 262 261 261 263 265 267 269 271 273 275 277 279 281
259 258 257 257 257 258 259 260 260 261 262 263 264 264 265 266 267 268 269 270 270 271 271 272 272 272 273 272 271 269 268 267 267 268 270 271 272 276 278 276 274 274 275 274 272 271 270 269 266 264 262 262 262 264 266 267 268 270 272 274 277 279 281
261 261 260 259 259 259 260 260 260 260 261 261 262 263 264 265 266 267 268 269 269 270 271 271 271 271 271 271 271 270 269 268 268 269 270 267 266 272 278 276 273 272 272 272 272 271 271 270 267 264 262 261 263 264 265 267 268 270 272 275 277 278 280
262 262 262 262 262 261 261 261 261 261 261 261 262 263 264 265 265 266 266 267 268 270 270 271 271 270 270 270 270 270 270 269 269 269 269 266 266 271 276 275 272 271 270 271 271 271 271 270 268 265 262 261 262 264 265 267 269 271 274 276 277 279 280
262 262 262 263 263 263 263 263 263 263 264 264 264 264 265 265 265 265 265 266 267 268 269 270 271 271 271 270 270 270 270 270 270 270 269 269 269 271 273 272 271 270 270 270 272 271 271 270 268 265 262 261 261 263 265 268 270 273 275 277 279 280 280
262 262 262 263 263 264 264 264 264 264 264 265 265 265 265 265 265 265 265 266 266 268 269 270 271 271 271 271 271 272 272 272 271 270 270 270 270 271 271 271 270 270 270 271 272 272 270 268 266 264 262 261 262 263 266 269 271 273 276 278 279 280 281
263 263 263 263 263 263 263 264 264 264 264 264 264 265 265 265 265 265 265 266 267 268 268 269 270 271 272 273 274 274 274 273 272 272 272 272 272 271 271 270 270 271 271 271 272 272 269 266 264 263 263 263 264 265 267 270 272 274 276 277 279 280 280
263 263 264 264 263 263 263 262 263 263 264 264 264 265 265 266 266 266 266 267 268 269 270 271 273 273 274 274 274 272 272 273 274 274 275 274 274 274 273 272 271 271 271 270 271 271 269 266 265 265 264 265 266 267 269 271 273 275 277 278 279 279 279
264 264 264 264 264 264 264 263 263 262 262 262 263 264 264 265 267 268 268 269 269 270 271 273 272 272 272 271 270 271 273 275 276 277 277 277 277 276 276 274 273 272 271 270 269 269 268 267 266 266 266 267 268 270 272 274 276 277 278 278 278 278 278
264 264 264 264 264 264 264 264 264 264 264 263 263 263 264 264 266 267 268 268 269 269 269 268 268 267 267 268 271 274 277 278 279 279 280 280 279 278 277 275 274 272 270 269 268 268 267 266 266 266 267 268 270 272 275 276 277 277 277 277 277 277 276
263 263 262 262 262 262 262 262 263 264 264 265 265 265 265 266 266 267 267 268 268 267 264 263 264 265 266 269 273 275 277 279 279 280 280 280 280 279 278 276 274 272 270 268 267 267 267 266 266 266 267 269 272 275 277 277 277 277 277 277 276 276 276
262 261 261 260 260 260 260 260 260 261 262 263 264 264 265 266 266 267 267 267 267 266 263 261 262 264 267 269 272 274 277 278 278 278 279 279 279 278 277 276 274 272 271 269 267 267 266 266 266 267 269 271 274 275 276 276 276 276 276 277 277 277 276
263 263 262 261 260 259 259 259 259 260 260 261 262 263 264 264 265 265 266 266 266 266 264 262 262 263 265 266 268 272 275 276 276 278 279 279 279 278 277 275 274 272 271 270 269 268 267 266 267 268 269 271 272 273 273 274 275 276 277 277 277 276 275
Height
5754 5754 5755 5755 5755 5756 5756 5756 5756 5757 5757 5757 5757 5758 5758 5758 5759 5759 5759 5759 5760 5761 5762 5763 5764 5764 5764 5765 5766 5767 5768 5768 5770 5770 5771 5772 5773 5774 5775 5776 5777 5778 5778 5779 5781 5782 5782 5784 5786 5788 5789 5790 5792 5793 5794 5796 5797 5799 5801 5802 5803 5804 5805
5751 5752 5752 5753 5753 5753 5753 5753 5754 5754 5754 5754 5754 5755 5755 5756 5756 5756 5756 5757 5757 5758 5759 5760 5761 5761 5762 5762 5763 5764 5765 5765 5766 5767 5768 5769 5770 5771 5772 5773 5774 5775 5776 5777 5778 5779 5780 5781 5783 5784 5786 5787 5788 5789 5791 5793 5794 5795 5796 5797 5798 5799 5800
5749 5749 5749 5750 5750 5750 5750 5751 5751 5751 5751 5751 5751 5752 5752 5753 5753 5754 5754 5754 5755 5756 5756 5757 5758 5759 5759 5759 5760 5760 5761 5762 5763 5764 5765 5766 5767 5768 5769 5770 5771 5772 5773 5774 5775 5776 5777 5778 5779 5780 5782 5783 5784 5785 5787 5788 5789 5790 5792 5793 5794 5795 5795
5746 5746 5747 5747 5747 5747 5748 5748 5748 5749 5749 5749 5749 5749 5749 5750 5751 5751 5752 5752 5752 5753 5754 5754 5755 5756 5756 5757 5757 5757 5758 5759 5760 5761 5762 5762 5763 5764 5765 5766 5767 5768 5769 5770 5771 5773 5773 5774 5776 5776 5777 5778 5779 5780 5782 5783 5784 5786 5787 5788 5789 5790 5791
5743 5743 5744 5744 5744 5745 5745 5745 5746 5746 5747 5747 5747 5747 5747 5747 5748 5749 5749 5749 5750 5750 5751 5751 5752 5753 5754 5754 5755 5755 5755 5756 5757 5758 5759 5759 5760 5761 5762 5763 5764 5765 5765 5766 5767 5769 5770 5771 5772 5773 5774 5774 5775 5776 5777 5778 5779 5781 5782 5783 5784 5785 5786
5740 5740 5741 5741 5742 5742 5742 5743 5743 5743 5744 5744 5744 5744 5744 5744 5745 5746 5746 5747 5747 5748 5748 5748 5749 5750 5751 5752 5752 5753 5753 5753 5754 5755 5756 5756 5757 5758 5758 5759 5760 5761 5762 5763 5764 5765 5766 5767 5768 5769 5770 5771 5772 5773 5773 5773 5775 5776 5777 5778 5779 5780 5781
5737 5737 5738 5738 5739 5739 5740 5740 5740 5740 5741 5741 5741 5741 5742 5742 5742 5743 5743 5744 5745 5745 5745 5746 5746 5747 5748 5748 5749 5750 5751 5751 5752 5752 5753 5754 5754 5755 5756 5756 5757 5758 5759 5759 5760 5761 5762 5763 5764 5765 5766 5767 5768 5770 5769 5769 5770 5771 5772 5773 5774 5775 5776
5734 5735 5735 5735 5736 5736 5737 5737 5737 5737 5738 5738 5738 5739 5739 5739 5739 5740 5740 5741 5741 5742 5743 5743 5743 5744 5744 5745 5746 5747 5748 5748 5749 5749 5750 5751 5751 5752 5753 5753 5754 5755 5756 5756 5757 5758 5758 5759 5760 5762 5763 5764 5765 5766 5767 5767 5767 5767 5768 5768 5769 5770 5771
5731 5732 5732 5732 5733 5733 5733 5734 5734 5734 5735 5735 5735 5735 5736 5736 5737 5737 5737 5738 5738 5739 5740 5740 5741 5741 5742 5742 5743 5744 5745 5745 5746 5746 5747 5748 5748 5749 5749 5750 5751 5752 5753 5753 5754 5755 5755 5756 5756 5757 5759 5760 5761 5762 5763 5763 5764 5764 5764 5765 5765 5765 5766
5728 5729 5729 5730 5730 5730 5730 5731 5731 5731 5732 5732 5732 5732 5733 5733 5734 5734 5735 5735 5736 5736 5737 5737 5738 5739 5739 5739 5740 5741 5741 5742 5743 5744 5744 5745 5746 5746 5747 5747 5748 5748 5749 5750 5751 5752 5752 5753 5753 5754 5755 5756 5757 5759 5760 5760 5760 5761 5761 5761 5762 5762 5762
5726 5726 5727 5727 5727 5727 5727 5727 5727 5728 5728 5729 5729 5729 5730 5730 5731 5732 5732 5733 5733 5734 5734 5735 5735 5736 5737 5737 5737 5737 5738 5738 5739 5740 5741 5742 5743 5743 5744 5744 5745 5745 5746 5746 5747 5748 5749 5750 5750 5751 5752 5752 5754 5755 5756 5757 5757 5757 5758 5758 5758 5759 5759
5723 5723 5724 5724 5724 5724 5724 5724 5724 5725 5725 5726 5726 5727 5727 5728 5728 5729 5729 5730 5730 5731 5731 5732 5733 5733 5734 5735 5735 5735 5735 5735 5736 5736 5737 5738 5739 5739 5740 5741 5742 5742 5743 5743 5743 5744 5745 5746 5747 5747 5748 5749 5750 5751 5753 5754 5754 5754 5754 5755 5755 5755 5756
5720 5720 5721 5721 5722 5722 5722 5722 5721 5722 5722 5722 5723 5723 5724 5725 5725 5725 5726 5726 5727 5727 5728 5729 5729 5730 5731 5731 5732 5732 5733 5733 5733 5733 5734 5734 5734 5735 5736 5736 5737 5738 5739 5739 5740 5740 5741 5741 5742 5743 5744 5745 5746 5747 5749 5750 5752 5751 5751 5751 5751 5751 5751
5717 5718 5719 5719 5719 5719 5719 5719 5719 5719 5719 5719 5720 5720 5721 5721 5722 5722 5723 5723 5724 5724 5725 5725 5726 5726 5727 5727 5728 5729 5729 5729 5730 5730 5730 5731 5731 5731 5732 5732 5733 5734 5734 5735 5735 5736 5736 5737 5737 5738 5739 5740 5741 5742 5743 5745 5747 5747 5747 5746 5747 5747 5747
5714 5715 5716 5716 5716 5716 5716 5716 5717 5717 5717 5717 5717 5717 5718 5718 5719 5719 5719 5720 5720 5721 5721 5721 5722 5722 5723 5723 5724 5724 5725 5725 5726 5726 5726 5726 5727 5727 5727 5728 5728 5729 5730 5730 5731 5731 5732 5732 5733 5733 5734 5735 5735 5736 5737 5739 5741 5742 5742 5741 5741 5742 5743
5710 5711 5712 5713 5713 5713 5713 5713 5714 5714 5715 5715 5715 5715 5715 5716 5716 5716 5716 5717 5717 5717 5718 5718 5719 5719 5719 5719 5720 5720 5721 5721 5722 5722 5722 5722 5722 5723 5723 5723 5723 5724 5724 5725 5725 5726 5727 5727 5728 5728 5729 5729 5730 5730 5731 5732 5734 5736 5737 5736 5736 5737 5737
5706 5706 5707 5708 5709 5709 5709 5710 5710 5711 5711 5712 5712 5712 5712 5712 5713 5713 5713 5714 5714 5714 5715 5715 5715 5716 5716 5716 5716 5716 5716 5717 5717 5717 5718 5718 5718 5719 5719 5718 5718 5718 5718 5719 5719 5720 5721 5721 5722 5723 5723 5723 5724 5724 5725 5726 5727 5729 5730 5731 5730 5731 5732
5702 5702 5702 5703 5705 5705 5705 5705 5706 5707 5707 5708 5708 5708 5709 5709 5709 5710 5710 5710 5711 5711 5711 5712 5712 5712 5712 5712 5712 5712 5712 5712 5712 5712 5713 5713 5713 5714 5714 5714 5714 5714 5714 5714 5714 5714 5714 5715 5716 5716 5717 5717 5717 5718 5719 5720 5720 5721 5723 5724 5724 5724 5725
5697 5697 5698 5699 5699 5699 5700 5701 5702 5702 5703 5703 5704 5704 5704 5705 5705 5706 5706 5706 5707 5707 5707 5707 5707 5707 5707 5707 5707 5707 5708 5708 5708 5708 5708 5708 5708 5708 5709 5709 5709 5709 5709 5710 5710 5710 5710 5710 5710 5710 5711 5711 5711 5712 5713 5713 5714 5715 5716 5717 5718 5718 5718
5692 5693 5693 5694 5694 5694 5695 5696 5697 5697 5698 5699 5699 5699 5699 5700 5700 5701 5702 5702 5703 5703 5703 5703 5702 5702 5702 5702 5702 5703 5703 5703 5703 5703 5703 5703 5703 5703 5703 5703 5703 5704 5704 5705 5705 5705 5705 5705 5705 5705 5705 5705 5705 5706 5707 5707 5708 5708 5710 5711 5712 5712 5712
5687 5688 5688 5688 5688 5689 5690 5691 5692 5692 5692 5693 5694 5693 5693 5693 5694 5695 5696 5697 5698 5699 5698 5698 5697 5697 5697 5697 5697 5698 5698 5698 5698 5698 5698 5698 5698 5698 5698 5698 5698 5698 5698 5699 5699 5699 5700 5700 5700 5700 5700 5700 5700 5701 5701 5702 5702 5702 5703 5704 5705 5706 5706
5681 5682 5682 5683 5683 5684 5685 5686 5686 5685 5686 5687 5688 5688 5687 5687 5687 5689 5690 5691 5692 5692 5691 5691 5691 5691 5692 5692 5692 5692 5692 5692 5693 5693 5693 5693 5693 5693 5693 5693 5693 5693 5693 5693 5693 5693 5694 5694 5694 5695 5695 5695 5695 5695 5696 5696 5696 5696 5697 5698 5699 5699 5700
5675 5675 5676 5677 5678 5678 5679 5679 5679 5679 5679 5680 5681 5681 5681 5681 5681 5682 5683 5683 5683 5683 5683 5684 5685 5686 5686 5686 5686 5686 5686 5687 5687 5687 5688 5688 5688 5688 5687 5687 5688 5687 5687 5687 5687 5687 5687 5687 5688 5688 5689 5689 5689 5689 5690 5690 5690 5690 5690 5691 5692 5692 5693
5669 5669 5670 5671 5672 5672 5673 5673 5673 5673 5674 5674 5674 5674 5674 5675 5675 5675 5675 5675 5676 5676 5677 5678 5679 5680 5681 5681 5681 5681 5681 5681 5681 5681 5682 5682 5682 5682 5682 5682 5682 5681 5681 5680 5681 5681 5681 5680 5681 5681 5682 5682 5683 5683 5683 5683 5683 5683 5684 5684 5685 5685 5686
5662 5662 5663 5664 5665 5666 5667 5667 5667 5667 5667 5667 5667 5668 5668 5669 5669 5669 5669 5669 5669 5670 5671 5672 5673 5674 5675 5675 5675 5676 5676 5675 5675 5675 5675 5675 5676 5676 5676 5675 5675 5675 5674 5673 5674 5674 5674 5674 5674 5674 5674 5675 5675 5676 5676 5676 5676 5676 5676 5677 5678 5678 5678
5654 5655 5655 5656 5657 5658 5659 5660 5660 5660 5660 5660 5661 5661 5662 5662 5662 5662 5662 5662 5662 5662 5663 5665 5666 5667 5667 5667 5668 5669 5669 5669 5669 5669 5669 5669 5669 5669 5669 5669 5668 5668 5667 5667 5667 5667 5667 5667 5667 5667 5667 5668 5668 5668 5668 5668 5668 5668 5668 5669 5670 5670 5670
5645 5647 5647 5648 5649 5650 5651 5652 5653 5653 5653 5653 5654 5654 5655 5655 5655 5656 5655 5655 5654 5655 5656 5658 5659 5659 5659 5660 5660 5662 5662 5663 5663 5662 5662 5662 5662 5662 5662 5662 5662 5662 5661 5660 5660 5659 5659 5660 5660 5660 5660 5660 5660 5660 5660 5660 5659 5659 5660 5660 5661 5662 5661
5637 5638 5639 5640 5641 5642 5643 5644 5644 5645 5645 5645 5646 5647 5647 5647 5648 5648 5648 5648 5647 5648 5649 5650 5651 5651 5651 5652 5653 5654 5655 5655 5655 5655 5655 5655 5655 5655 5655 5654 5654 5654 5654 5654 5653 5652 5652 5652 5652 5653 5653 5653 5653 5653 5652 5652 5651 5651 5651 5651 5651 5652 5652
5629 5630 5631 5632 5632 5633 5634 5635 5635 5636 5637 5637 5638 5639 5639 5639 5639 5640 5640 5640 5641 5642 5642 5642 5642 5643 5644 5645 5645 5646 5647 5647 5647 5647 5648 5647 5647 5647 5647 5646 5646 5646 5646 5646 5645 5645 5644 5644 5645 5645 5645 5646 5645 5645 5645 5644 5643 5643 5642 5642 5641 5641 5641
5621 5622 5623 5624 5624 5625 5625 5626 5627 5628 5628 5629 5630 5630 5631 5631 5631 5631 5632 5633 5634 5635 5635 5635 5635 5636 5637 5637 5638 5638 5639 5639 5639 5639 5639 5639 5639 5639 5639 5638 5638 5638 5638 5638 5637 5637 5636 5636 5637 5637 5637 5638 5638 5637 5637 5636 5635 5634 5633 5633 5632 5631 5631
5612 5613 5614 5615 5616 5616 5617 5617 5618 5619 5620 5621 5621 5622 5622 5622 5623 5623 5625 5626 5627 5627 5627 5628 5628 5629 5629 5630 5630 5630 5630 5630 5630 5630 5631 5631 5631 5631 5630 5630 5629 5629 5629 5629 5629 5629 5628 5628 5628 5629 5629 5629 5629 5629 5628 5627 5626 5625 5624 5623 5623 5622 5621
5604 5605 5605 5606 5607 5607 5608 5609 5610 5611 5612 5613 5613 5614 5615 5615 5615 5616 5618 5619 5620 5620 5620 5621 5622 5622 5622 5622 5623 5622 5622 5622 5622 5622 5623 5623 5623 5622 5622 5621 5621 5620 5620 5620 5620 5620 5619 5619 5620 5620 5620 5620 5621 5621 5619 5617 5616 5615 5614 5613 5613 5612 5612
5596 5596 5597 5597 5598 5599 5600 5601 5602 5603 5604 5605 5606 5606 5607 5607 5608 5609 5610 5611 5612 5613 5614 5614 5614 5614 5615 5615 5615 5615 5614 5614 5614 5615 5615 5615 5615 5614 5613 5613 5612 5612 5611 5611 5611 5610 5610 5610 5610 5611 5611 5611 5611 5610 5608 5607 5606 5605 5604 5603 5603 5602 5601
5587 5588 5588 5589 5590 5591 5592 5592 5593 5595 5596 5597 5598 5599 5599 5600 5602 5602 5603 5604 5605 5606 5607 5607 5607 5607 5607 5608 5608 5607 5607 5607 5606 5607 5607 5606 5606 5606 5605 5604 5604 5603 5602 5602 5601 5601 5601 5601 5601 5601 5602 5601 5601 5599 5598 5596 5595 5594 5593 5593 5592 5591 5590
5579 5580 5580 5581 5582 5582 5584 5585 5585 5587 5588 5589 5590 5591 5592 5593 5594 5594 5595 5596 5597 5599 5600 5600 5599 5600 5600 5601 5601 5600 5600 5600 5599 5599 5599 5598 5597 5597 5596 5595 5594 5593 5593 5592 5592 5592 5592 5591 5591 5591 5591 5591 5590 5588 5587 5585 5584 5582 5582 5581 5580 5579 5577
5570 5571 5571 5572 5573 5574 5575 5577 5578 5579 5580 5581 5582 5583 5584 5585 5586 5587 5588 5588 5589 5590 5592 5592 5592 5592 5593 5593 5593 5593 5593 5593 5592 5591 5591 5590 5589 5588 5587 5585 5584 5583 5582 5582 5582 5581 5581 5581 5580 5581 5581 5580 5579 5577 5576 5574 5573 5571 5569 5568 5566 5565 5563
5561 5562 5562 5563 5564 5565 5567 5568 5569 5571 5572 5573 5575 5576 5577 5578 5578 5579 5580 5580 5581 5583 5584 5584 5585 5586 5586 5586 5586 5586 5586 5585 5584 5583 5583 5582 5580 5579 5577 5576 5574 5573 5573 5572 5571 5571 5570 5570 5570 5570 5569 5568 5567 5566 5565 5563 5561 5559 5557 5555 5553 5551 5549